#timestamp,LO_Frequency,Hit,StdDev 
1626393615.6,286047002.3,N
1626393635.4,286047001.5,N
1626393655.3,286047002.7,N
1626393675.1,286047000.3,N
1626393695.8,286047002.7,N
1626393715.7,286047002.3,N
1626393735.5,286046999.7,N
1626393755.4,286047002.4,N
1626393775.2,286047000.0,N
1626393795.0,286047002.6,N
1626393795.9,286047002.6,N
1626393815.8,286047002.4,N
1626393835.6,286046999.7,N
1626393855.5,286047000.5,N
1626393875.3,286046998.5,N
1626393895.2,286047000.9,N
1626393915.9,286047000.5,N
1626393935.7,286046998.2,N
1626393955.6,286047001.1,N
1626393975.4,286046998.8,N
1626393995.2,286046999.6,N
1626394015.1,286046999.0,N
1626394016.0,286046999.0,N
1626394035.8,286046998.7,N
1626394055.7,286046999.0,N
1626394075.5,286046998.1,N
1626394095.3,286047000.4,N
1626394115.2,286047000.7,N
1626394135.0,286047001.1,N
1626394135.9,286047001.1,N
1626394155.7,286047001.0,N
1626394175.6,286046998.6,N
1626394195.4,286047001.0,N
1626394215.3,286047001.1,N
1626394235.1,286047001.1,N
1626394236.0,286047001.1,N
1626394255.8,286047000.5,N
1626394275.7,286047001.1,N
1626394295.5,286047000.3,N
1626394315.3,286047002.7,N
1626394335.2,286047001.1,N
1626394355.0,286047000.2,N
1626394355.9,286047000.2,N
1626394375.8,286047000.9,N
1626394395.6,286047000.4,N
1626394415.4,286047000.5,N
1626394435.3,286046998.2,N
1626394455.1,286047000.9,N
1626394475.9,286047000.6,N
1626394495.7,286047000.6,N
1626394515.5,286047001.0,N
1626394535.4,286047001.2,N
1626394555.2,286047001.2,N
1626394575.0,286047001.0,N
1626394575.9,286047001.0,N
1626394595.8,286047000.9,N
1626394615.6,286046999.9,N
1626394635.5,286046999.8,N
1626394655.3,286047000.0,N
1626394675.1,286047002.5,Y
1626394695.9,286047000.1,P
1626394715.7,286047000.0,N
1626394735.6,286046998.5,P
1626394755.4,286047001.0,N
1626394775.2,286046998.1,N
1626394795.1,286046998.2,N
1626394796.0,286046998.2,N
1626394815.8,286047001.2,N
1626394835.7,286046998.2,N
1626394855.5,286047001.2,N
1626394875.3,286046998.8,N
1626394895.2,286046998.3,N
1626394915.0,286046998.9,N
1626394915.9,286046998.9,N
1626394935.8,286046998.7,N
1626394955.6,286046998.6,N
1626394975.4,286046998.6,N
1626394995.3,286046999.0,N
1626395015.1,286046998.7,N
1626395035.9,286046999.6,N
1626395055.7,286046998.9,N
1626395075.5,286047000.7,N
1626395095.4,286047001.1,N
1626395115.2,286047000.7,N
1626395135.1,286047001.1,N
1626395136.0,286047001.1,N
1626395155.8,286047000.9,N
1626395175.6,286047000.9,N
1626395195.5,286047001.1,N
1626395215.3,286046998.7,N
1626395235.2,286046998.8,N
1626395255.9,286046998.7,N
1626395275.7,286046998.7,N
1626395295.6,286046999.0,N
1626395315.4,286046999.4,N
1626395335.3,286046998.5,N
1626395355.1,286046999.4,N
1626395356.0,286046999.4,N
1626395375.8,286046999.2,N
1626395395.7,286046998.4,N
1626395415.5,286046998.4,N
1626395435.4,286046999.4,N
1626395455.2,286046998.4,N
1626395475.0,286046998.3,N
1626395475.9,286046998.3,N
1626395495.8,286046998.4,N
1626395515.6,286047001.2,N
1626395535.5,286047000.9,N
1626395555.3,286047000.1,N
1626395575.1,286047000.4,N
1626395595.9,286046998.5,N
1626395615.7,286046998.8,N
1626395635.5,286046999.0,N
1626395655.4,286046996.9,Y
1626395675.2,286046998.4,P
1626395695.1,286046996.8,P
1626395726.0,286046997.1,E
1626395735.0,286046998.7,N
1626395735.9,286046998.7,P
1626395755.7,286047000.7,P
1626395775.6,286047000.2,N
1626395795.4,286047000.6,N
1626395815.3,286047002.7,N
1626395835.1,286047000.5,N
1626395836.0,286047000.5,N
1626395855.8,286046998.5,N
1626395875.7,286047000.4,N
1626395895.5,286047000.6,N
1626395915.3,286046999.7,N
1626395935.2,286046999.8,N
1626395955.0,286047002.2,N
1626395955.9,286047002.2,N
1626395975.8,286046999.9,N
1626395995.6,286047002.0,N
1626396015.4,286047001.9,N
1626396035.3,286047002.5,N
1626396055.1,286047002.1,N
1626396075.9,286047002.5,N
1626396095.7,286047001.9,N
1626396115.5,286046999.9,N
1626396135.4,286047002.7,N
1626396155.2,286046998.2,N
1626396175.1,286047001.1,N
1626396176.0,286047001.1,N
1626396195.8,286046998.4,N
1626396215.6,286046998.8,N
1626396235.5,286046996.6,N
1626396255.3,286046996.6,N
1626396275.1,286046999.1,N
1626396295.9,286046998.4,N
1626396315.7,286046999.5,N
1626396335.6,286046998.3,N
1626396355.4,286046999.1,N
1626396375.2,286046999.2,N
1626396395.1,286046997.3,N
1626396396.0,286046997.3,N
1626396415.8,286046996.9,N
1626396435.6,286046996.6,N
1626396455.5,286046999.0,N
1626396475.3,286047001.1,N
1626396495.2,286046999.9,N
1626396515.9,286047002.5,N
1626396535.7,286047001.5,N
1626396555.6,286047004.4,N
1626396575.4,286047002.3,N
1626396595.2,286047002.6,N
1626396615.1,286047002.3,N
1626396616.0,286047002.3,N
1626396635.8,286047001.7,N
1626396655.7,286047002.5,N
1626396675.5,286047002.4,N
1626396695.3,286047002.6,N
1626396715.2,286047002.2,N
1626396735.0,286047004.4,N
1626396735.9,286047004.4,N
1626396755.7,286047003.6,N
1626396775.6,286047003.9,N
1626396795.4,286047003.7,N
1626396815.3,286047004.1,N
1626396835.1,286047003.8,N
1626396836.0,286047003.8,N
1626396855.8,286047003.4,N
1626396875.7,286047004.4,N
1626396895.5,286047002.3,N
1626396915.3,286047002.2,N
1626396935.2,286047001.8,N
1626396955.0,286047002.4,N
1626396955.9,286047002.4,N
1626396975.8,286047001.6,N
1626396995.6,286047001.5,N
1626397015.4,286047001.5,N
1626397035.3,286047004.2,Y
1626397055.1,286046998.1,P
1626397075.8,286047001.2,N
1626397095.7,286047001.1,N
1626397115.5,286047002.7,N
1626397135.4,286047002.2,N
1626397155.2,286047000.1,N
1626397175.0,286047000.5,N
1626397175.9,286047000.5,N
1626397195.8,286046999.2,N
